Location: G�ppingen
(48.7000°N, 9.6670°E)
Time: 16:00:59
(UTC+02:00)

Envisat - Visible Passes

Search period start: 24 June 2017 00:00
Search period end: 04 July 2017 00:00
Orbit: 764 x 766 km, 98.2° (Epoch: 23 June)

Date Brightness Start Highest point End Pass type
(mag) Time Alt. Az. Time Alt. Az. Time Alt. Az.
24 Jun 4.8 22:06:56 10° SSW 22:11:23 30° W 22:15:52 10° NNW visible
26 Jun 5.4 22:33:46 10° SW 22:37:17 19° W 22:40:48 10° NW visible
28 Jun 5.8 23:02:01 10° W 23:03:16 11° W 23:04:32 10° WNW visible
29 Jun 5.2 22:22:06 10° SW 22:26:04 23° W 22:30:04 10° NW visible
01 Jul 5.6 22:49:29 10° WSW 22:52:01 14° W 22:54:34 10° NW visible
02 Jul 4.9 22:10:33 10° SSW 22:14:53 28° W 22:19:14 10° NW visible
